Eau Claire, WI

11:49 PM CDT on October 16, 2017 (GMT -0500)
Chippewa Valley Regional

Weather History for KEAU - November, 2014

Change the Weather History Date:

Friday, November 7, 2014

  Actual Average Record
Temperature  
Mean Temperature 33 °F 38 °F  
Max Temperature 42 °F 47 °F 71 °F (1949)
Min Temperature 24 °F 29 °F -3 °F (1991)
Degree Days  
Heating Degree Days 32 27  
Month to date heating degree days 189 180  
Since 1 July heating degree days 965 964  
Cooling Degree Days 0 0  
Month to date cooling degree days 0 0  
Year to date cooling degree days 500 579  
Moisture  
Dew Point 28 °F    
Average Humidity 76    
Maximum Humidity 92    
Minimum Humidity 59    
Precipitation  
Precipitation 0.01 in 0.06 in 0.88 in (1943)
Month to date precipitation 0.51 0.44  
Year to date precipitation 41.07 28.58  
Snow  
Snow 0.00 in 0.10 in 5.00 in (1896)
Month to date snowfall T 0.7  
Since 1 July snowfall 0.6 1.1  
Since 1 September snowfall 0.6 1.1  
Snow Depth 0.00 in    
Sea Level Pressure  
Sea Level Pressure 29.93 in    
Wind  
Wind Speed 8 mph (South)    
Max Wind Speed 24 mph    
Max Gust Speed 32 mph    
Visibility 10 miles    
Events      
T = Trace of Precipitation, MM = Missing Value Source: NWS Daily Summary

Daily Weather History Graph

Daily Weather History Graph

Search for Another Location

Airport or City:

Trip Planner

Search our weather history database for the weather conditions in past years. The results will help you decide how hot, cold, wet, or windy it might be!

Date:

Astronomy

Nov. 07, 2014 Rise Set
Actual Time 6:52 AM CST 4:46 PM CST
Civil Twilight 6:21 AM CST 5:17 PM CST
Nautical Twilight 5:46 AM CST 5:52 PM CST
Astronomical Twilight 5:12 AM CST 6:26 PM CST
Moon 5:38 PM CST (11/7) 7:28 AM CST (11/7)
Length of Visible Light 10h 55m
Length of Day
9h 53m
Full, 99% of the Moon is Illuminated
Nov 7
Full
Nov 14
Last Quarter
Nov 22
New
Nov 29
First Quarter
Dec 6
Full

Hourly Weather History & Observations

Time (CST) Temp. Windchill Dew Point Humidity Pressure Visibility Wind Dir Wind Speed Gust Speed Precip Events Conditions
12:56 AM 27.0 °F 21.6 °F 25.0 °F 92% 30.24 in 10.0 mi West 4.6 mph - N/A   Clear
1:56 AM 27.0 °F - 25.0 °F 92% 30.21 in 10.0 mi Calm Calm - N/A   Clear
2:56 AM 26.1 °F 20.5 °F 24.1 °F 92% 30.20 in 10.0 mi WSW 4.6 mph - N/A   Clear
3:56 AM 26.1 °F - 24.1 °F 92% 30.18 in 10.0 mi Calm Calm - N/A   Clear
4:56 AM 25.0 °F - 23.0 °F 92% 30.15 in 8.0 mi Calm Calm - N/A   Clear
5:56 AM 25.0 °F - 23.0 °F 92% 30.12 in 10.0 mi Calm Calm - N/A   Clear
6:56 AM 26.1 °F 20.5 °F 24.1 °F 92% 30.10 in 10.0 mi SSE 4.6 mph - N/A   Clear
7:56 AM 30.0 °F 25.2 °F 27.0 °F 88% 30.09 in 9.0 mi SSE 4.6 mph - N/A   Overcast
8:56 AM 33.1 °F 26.9 °F 28.0 °F 82% 30.08 in 10.0 mi South 6.9 mph - N/A   Overcast
9:56 AM 35.1 °F 27.9 °F 27.0 °F 72% 30.05 in 10.0 mi South 9.2 mph - N/A   Overcast
10:56 AM 36.0 °F 26.7 °F 27.0 °F 70% 30.00 in 10.0 mi SSE 15.0 mph - N/A   Overcast
11:56 AM 37.0 °F 29.3 °F 26.1 °F 65% 29.97 in 10.0 mi South 11.5 mph - N/A   Overcast
12:56 PM 39.0 °F 31.4 °F 26.1 °F 60% 29.90 in 10.0 mi SSE 12.7 mph 21.9 mph N/A   Overcast
1:56 PM 39.0 °F 30.3 °F 27.0 °F 62% 29.88 in 10.0 mi South 16.1 mph - N/A   Overcast
2:56 PM 39.0 °F 30.6 °F 28.9 °F 67% 29.82 in 10.0 mi South 15.0 mph - 0.01 in   Overcast
3:56 PM 39.0 °F 29.3 °F 28.0 °F 65% 29.76 in 10.0 mi South 19.6 mph 32.2 mph N/A   Mostly Cloudy
4:56 PM 39.0 °F 32.3 °F 28.9 °F 67% 29.80 in 10.0 mi South 10.4 mph - N/A   Overcast
5:56 PM 39.0 °F 32.3 °F 30.0 °F 70% 29.78 in 10.0 mi South 10.4 mph - N/A   Overcast
6:56 PM 39.0 °F 32.8 °F 30.0 °F 70% 29.76 in 10.0 mi South 9.2 mph - N/A   Overcast
7:56 PM 39.0 °F 31.8 °F 30.9 °F 73% 29.73 in 10.0 mi South 11.5 mph - 0.00 in   Overcast
8:56 PM 39.0 °F 34.0 °F 30.9 °F 73% 29.70 in 10.0 mi South 6.9 mph - N/A   Overcast
9:56 PM 39.0 °F 35.7 °F 32.0 °F 76% 29.69 in 10.0 mi South 4.6 mph - N/A   Overcast
10:28 PM 39.9 °F 37.8 °F 33.1 °F 77% 29.66 in 10.0 mi SSW 3.5 mph - 0.00 in   Overcast
10:56 PM 39.9 °F 35.8 °F 33.1 °F 77% 29.68 in 10.0 mi WSW 5.8 mph - 0.00 in   Overcast
11:56 PM 42.1 °F 33.9 °F 36.0 °F 79% 29.71 in 10.0 mi NW 17.3 mph 27.6 mph N/A   Overcast